Location: Bussy-Saint-Georges
(48.8410°N, 2.7017°E)
Time: 15:36:35
(UTC+00:00)

CENTAUR R/B - Pass Details

Date: 18 October 2021
Orbit: 728 x 1459 km, 63.4° (Epoch: 26 November)

Event Time Altitude Azimuth Distance (km) Brightness Sun altitude
Rises 17:13:59 0° 265° (W) 3,572 8.2 -4.1°
Reaches altitude 10° 17:16:38 10° 276° (W) 2,734 6.4 -4.5°
Maximum altitude 17:22:26 33° 339° (NNW) 1,771 4.0 -5.5°
Drops below altitude 10° 17:29:15 10° 41° (NE) 3,223 4.8 -6.6°
Enters shadow 17:32:14 - 50° (NE) 4,166 5.3 -7.1°
